Regional Weather Roundup
Issued by NWS

Home | Current Version | Previous Version | Graphics & Text | Print | Product List | Glossary On
Versions: 1 2 3 4 5 6 7 8 9 10 11 12 13 14 15 16 17 18 19 20 21 22 23 24 25 26 27 28 29 30 31 32 33 34 35 36 37 38 39 40 41 42 43 44 45 46 47 48 49 50
000
ASUS43 KOAX 121410
RWRNE

WEATHER ROUNDUP FOR NEBRASKA
NATIONAL WEATHER SERVICE OMAHA NE
800 AM CST TUE DEC 12 2017

NOTES: SATELLITE DATA IS BEING USED TO AUGMENT CLOUD COVER ABOVE
       12000 FEET.
       "FAIR" INDICATES FEW OR NO CLOUDS BELOW 12,000 FEET WITH NO
       SIGNIFICANT WEATHER AND/OR OBSTRUCTIONS TO VISIBILITY.


NEZ001>004-019>022-054>056-121500-
NEBRASKA PANHANDLE

CITY           SKY/WX    TMP DP  RH WIND       PRES   REMARKS
SCOTTSBLUFF    CLOUDY    21  14  74 NW8       30.29F WCI  11
ALLIANCE       CLOUDY    19  15  84 W7        30.25F WCI  10
CHADRON        CLOUDY    27  18  69 SW7       30.24F WCI  19
GORDON         FAIR      26  19  74 W3        30.22F
KIMBALL        CLOUDY    35  16  46 W15       30.31S WCI  25
SIDNEY         CLOUDY    29  15  56 W13       30.30S WCI  19
$$

NEZ057>060-069>072-079>082-121500-
SOUTHWEST NEBRASKA

CITY           SKY/WX    TMP DP  RH WIND       PRES   REMARKS
NORTH PLATTE   CLOUDY    16  13  88 W5        30.29F WCI   9
IMPERIAL       CLEAR     20  12  71 W7        30.30F WCI  11
LEXINGTON      CLOUDY    21  18  88 W3        30.31F
MCCOOK         CLOUDY    20  15  81 W8        30.33F WCI  10
OGALLALA       CLOUDY    19  13  80 SW6       30.29F WCI  10
$$

NEZ005>010-023>029-035>040-094-121500-
NORTH CENTRAL NEBRASKA

CITY           SKY/WX    TMP DP  RH WIND       PRES   REMARKS
VALENTINE      CLOUDY    21  17  84 SW7       30.24F WCI  12
AINSWORTH      CLOUDY    23  22  95 W8        30.23F WCI  14
BROKEN BOW     CLOUDY    23  19  85 CALM      30.27F
O`NEILL        CLOUDY    31  29  95 W5        30.25F WCI  26
ORD            CLOUDY    24  21  88 SW3       30.28S
THEDFORD       CLOUDY    22  19  89 W3        30.26F
$$

NEZ041-046>049-061>064-073>077-083>087-121500-
SOUTH CENTRAL NEBRASKA

CITY           SKY/WX    TMP DP  RH WIND       PRES   REMARKS
GRAND ISLAND   CLOUDY    28  26  92 W9        30.31S WCI  19
AURORA         CLOUDY    28  26  90 SW5       30.30F WCI  23
HASTINGS       CLOUDY    23  20  88 W8        30.31F WCI  14
HEBRON         CLOUDY    29  26  88 CALM      30.34S
HOLDREGE       CLOUDY    24  21  91 W7        30.31F WCI  15
KEARNEY        CLOUDY    23  20  88 W6        30.31F WCI  16
YORK           CLOUDY    27  27 100 W7        30.31S WCI  19
$$

NEZ011>018-030>034-042>045-121500-
NORTHEAST NEBRASKA

CITY           SKY/WX    TMP DP  RH WIND       PRES   REMARKS
NORFOLK        CLOUDY    18  17  96 CALM      30.27F
ALBION         CLOUDY    25  23  89 CALM      30.27F
BLAIR          CLOUDY    15  12  87 NW5       30.30F WCI   8
COLUMBUS       CLOUDY    13  10  88 SW3       30.31F
FREMONT        CLOUDY    13  10  87 CALM      30.32F
TEKAMAH        CLOUDY    12   7  80 CALM      30.34S
WAYNE          CLOUDY    13  10  91 S5        30.28F WCI   5
$$

NEZ050>053-065>068-078-088>093-121500-
SOUTHEAST NEBRASKA

CITY           SKY/WX    TMP DP  RH WIND       PRES   REMARKS
LINCOLN        CLOUDY    19  14  81 CALM      30.35S
OMAHA EPPLEY   CLOUDY    15   9  76 N3        30.33F
BEATRICE       CLOUDY    18  17  93 CALM      30.33F
FALLS CITY     CLOUDY    16  12  84 NW9       30.35S WCI   4
NEBRASKA CITY  CLOUDY    16  14  91 W7        30.33S WCI   6
PLATTSMOUTH    CLOUDY    17  14  89 NW9       30.32F WCI   5
$$

NEZ044-045-051>053-067-121500-
OMAHA AREA

CITY           SKY/WX    TMP DP  RH WIND       PRES   REMARKS
OMAHA EPPLEY   CLOUDY    15   9  76 N3        30.33F
BLAIR          CLOUDY    15  12  87 NW5       30.30F WCI   8
FREMONT        CLOUDY    13  10  87 CALM      30.32F
MILLARD        CLOUDY    20  15  81 W3        30.33F
OFFUTT AFB     CLOUDY    14  10  83 W3        30.32F
PLATTSMOUTH    CLOUDY    17  14  89 NW9       30.32F WCI   5
WAHOO          FAIR      14  10  84 CALM      30.33S
$$




USA.gov is the U.S. government's official web portal to all federal, state and local government web resources and services.